Weather reports worldwide

Advertisment
Cherbourg, France (7024): temperature & dewpoint: 10.07.2018 18:00:00 - 16.07.2018 18:00:00 (CEST)Cherbourg, France (7024): temperature 5cm: 10.07.2018 18:00:00 - 16.07.2018 18:00:00 (CEST)Cherbourg, France (7024): temperature -20cm & temperature -100cm: 10.07.2018 18:00:00 - 16.07.2018 18:00:00 (CEST)Cherbourg, France (7024): wind speed & gusts: 10.07.2018 18:00:00 - 16.07.2018 18:00:00 (CEST)Cherbourg, France (7024): wind direction: 10.07.2018 18:00:00 - 16.07.2018 18:00:00 (CEST)Cherbourg, France (7024): reduced air pressure: 10.07.2018 18:00:00 - 16.07.2018 18:00:00 (CEST)Cherbourg, France (7024): visibility: 10.07.2018 18:00:00 - 16.07.2018 18:00:00 (CEST)Cherbourg, France (7024): sunshine duration: 10.07.2018 18:00:00 - 16.07.2018 18:00:00 (CEST)Cherbourg, France (7024): precipitation: 10.07.2018 18:00:00 - 16.07.2018 18:00:00 (CEST)
Date & Time tt [°C] td [°C] tt 5cm [°C] tt -20cm [°C] tt -100cm [°C] ff [km/h] ff [kn] fx [km/h] fx [kn] dd ppp [hPa] vv [km] sd [min] rr [mm]
16.07.2018 18:00:00 22,2 12,7 28,4 17,1 15,4 15 8 22 12 WNW 1014,6 18 60 0,0
16.07.2018 17:00:00 24,0 12,9 25,6 17,0 15,4 14 7 32 17 W 1014,5 60 50 0,0
16.07.2018 16:00:00 20,8 13,0 23,2 16,8 15,4 13 7 29 16 WNW 1015,1 20 0 0,0
16.07.2018 15:00:00 20,1 12,6 24,6 16,7 15,4 14 8 25 13 NW 1015,3 60 3 0,0
16.07.2018 14:00:00 21,1 11,4 27,1 16,6 15,4 14 8 22 12 NW 1015,2 57 29 0,0
16.07.2018 13:00:00 21,8 12,6 29,0 16,5 15,4 14 7 22 12 NW 1015,2 59 56 0,0
16.07.2018 12:00:00 23,2 9,9 31,5 16,5 15,4 9 5 16 9 NW 1014,9 60 60 0,0
16.07.2018 11:00:00 22,4 9,9 27,4 16,5 15,4 7 4 13 7 WNW 1014,9 60 60 0,0
16.07.2018 10:00:00 21,1 10,6 25,0 16,5 15,4 8 4 13 7 WNW 1014,9 60 60 0,0
16.07.2018 09:00:00 20,0 11,7 16,8 16,6 15,4 6 3 12 7 NW 1014,9 60 60 0,0
16.07.2018 08:00:00 17,1 12,0 9,9 16,7 15,4 6 4 11 6 NW 1015,0 40 60 0,0
16.07.2018 07:00:00 13,5 10,7 6,9 16,8 15,4 6 3 11 6 NW 1015,3 16 23 0,0
16.07.2018 06:00:00 12,9 10,4 5,8 17,0 15,4 6 4 12 6 WNW 1015,5 9 0 0,2
16.07.2018 05:00:00 12,4 11,3 4,4 17,1 15,4 8 4 10 5 WNW 1015,7 16 0 0,0
16.07.2018 04:00:00 12,2 11,3 4,0 17,3 15,4 5 3 8 5 NW 1015,9 11 0 0,0
16.07.2018 03:00:00 11,8 9,9 4,1 17,4 15,4 4 2 5 3 NW 1016,1 20 0 0,0
16.07.2018 02:00:00 12,0 10,4 4,9 17,6 15,4 4 2 7 4 WSW 1016,5 27 0 0,0
16.07.2018 01:00:00 12,9 9,2 4,7 17,7 15,4 3 2 8 5 W 1016,5 46 0 0,0
16.07.2018 00:00:00 13,4 10,6 5,3 17,8 15,4 5 3 6 4 SW 1016,5 26 0 0,0
15.07.2018 23:00:00 14,1 10,7 7,7 17,8 15,4 6 3 9 5 W 1016,4 18 0 0,0
15.07.2018 22:00:00 16,7 10,3 14,6 17,9 15,4 6 3 10 5 W 1016,1 47 28 0,0
15.07.2018 21:00:00 19,8 11,8 22,2 17,8 15,4 8 4 16 9 NW 1015,7 44 60 0,0
15.07.2018 20:00:00 20,6 10,7 25,4 17,7 15,4 10 5 18 10 NW 1015,6 60 60 0,0
15.07.2018 19:00:00 20,8 11,4 28,0 17,5 15,4 10 6 21 12 NNW 1016,1 59 60 0,0
15.07.2018 18:00:00 21,2 11,8 30,3 17,4 15,4 10 6 21 11 NNW 1016,4 42 60 0,0
15.07.2018 17:00:00 21,5 12,3 30,6 17,2 15,4 12 7 27 14 NW 1016,6 39 60 0,0
15.07.2018 16:00:00 21,2 12,9 31,0 17,0 15,4 14 8 24 13 NNW 1016,7 20 60 0,0
15.07.2018 15:00:00 21,3 14,5 33,7 16,8 15,4 12 6 21 11 NNW 1016,9 43 60 0,0
15.07.2018 14:00:00 22,0 14,1 32,7 16,6 15,4 11 6 17 9 N 1017,2 46 60 0,0
15.07.2018 13:00:00 21,3 13,7 31,2 16,6 15,4 9 5 17 9 N 1017,5 20 60 0,0
15.07.2018 12:00:00 20,2 13,6 28,9 16,5 15,4 9 5 17 9 NNW 1017,7 20 60 0,0
15.07.2018 11:00:00 19,1 13,5 25,8 16,6 15,4 9 5 14 8 NNW 1017,6 18 60 0,0
15.07.2018 10:00:00 17,7 13,2 22,6 16,6 15,4 9 5 15 8 NNW 1017,9 19 60 0,0
15.07.2018 09:00:00 17,1 12,8 15,2 16,7 15,4 7 4 11 6 NNW 1018,2 45 60 0,0
15.07.2018 08:00:00 15,3 11,7 7,7 16,9 15,4 7 4 10 5 NW 1018,1 20 60 0,0
15.07.2018 07:00:00 12,9 11,1 4,4 17,0 15,4 4 2 9 5 N 1017,9 30 24 0,0
15.07.2018 06:00:00 11,4 9,3 3,8 17,2 15,4 7 4 9 5 NNW 1018,1 20 0 0,0
15.07.2018 05:00:00 12,2 10,4 4,0 17,3 15,4 8 4 10 6 NW 1018,4 27 0 0,2
15.07.2018 04:00:00 11,9 10,5 3,5 17,4 15,4 7 4 9 5 NW 1018,6 20 0 0,0
15.07.2018 03:00:00 11,0 10,2 3,8 17,5 15,4 7 4 9 5 NW 1018,9 7 0 0,0
15.07.2018 02:00:00 11,5 10,7 4,9 17,7 15,4 5 3 9 5 WNW 1019,5 5 0 0,0
15.07.2018 01:00:00 12,3 11,7 8,0 17,8 15,3 7 4 10 5 NW 1019,7 0,2 0 0,0
15.07.2018 00:00:00 13,4 12,8 6,1 17,9 15,4 6 4 10 5 NW 1019,6 4,5 0 0,0
14.07.2018 23:00:00 13,4 11,8 6,9 18,0 15,3 3 2 8 5 NNW 1019,6 8 0 0,0
14.07.2018 22:00:00 15,6 13,1 13,9 18,0 15,3 4 2 8 4 NNW 1019,2 26 29 0,0
14.07.2018 21:00:00 17,5 13,6 20,6 17,9 15,4 5 3 16 9 NNW 1019,3 32 60 0,0
14.07.2018 20:00:00 19,7 13,6 30,1 17,8 15,4 9 5 15 8 N 1019,0 20 60 0,0
14.07.2018 19:00:00 19,8 13,5 32,8 17,7 15,4 11 6 19 10 NNE 1019,4 60 60 0,0
14.07.2018 18:00:00 21,9 13,0 36,7 17,5 15,3 9 5 20 11 NE 1019,6 20 60 0,0
14.07.2018 17:00:00 22,0 13,6 37,3 17,3 15,4 12 6 22 12 NE 1019,8 18 60 0,0
14.07.2018 16:00:00 22,0 13,9 38,0 17,1 15,4 13 7 26 14 ENE 1020,1 19 60 0,0
14.07.2018 15:00:00 21,7 13,8 37,5 16,9 15,3 15 8 25 14 NE 1020,5 19 60 0,0
14.07.2018 14:00:00 21,8 13,7 36,6 16,8 15,3 16 9 25 14 NNE 1020,6 20 60 0,0
14.07.2018 13:00:00 21,7 14,1 36,5 16,7 15,3 13 7 26 14 NE 1020,7 40 60 0,0
14.07.2018 12:00:00 21,5 13,9 33,7 16,6 15,3 11 6 29 16 ENE 1021,1 41 58 0,0
14.07.2018 11:00:00 20,9 14,1 29,5 16,6 15,3 11 6 25 14 ENE 1021,2 19 60 0,0
14.07.2018 10:00:00 19,5 14,1 23,1 16,7 15,3 8 4 13 7 ENE 1021,4 17 60 0,0
14.07.2018 09:00:00 16,5 14,1 16,6 16,7 15,3 6 4 13 7 ENE 1021,6 12 60 0,0
14.07.2018 08:00:00 15,3 14,8 9,2 16,9 15,3 8 4 12 6 ENE 1021,3 7 60 0,0
14.07.2018 07:00:00 13,5 13,0 6,5 17,0 15,3 6 3 9 5 NNE 1021,3 0,2 0 0,2
14.07.2018 06:00:00 12,8 12,3 5,0 17,1 15,3 8 4 9 5 N 1021,4 1,2 0 0,0
14.07.2018 05:00:00 12,5 12,0 5,5 17,2 15,3 6 4 9 5 N 1021,6 0,2 0 0,0
14.07.2018 04:00:00 12,5 11,9 10,3 17,4 15,3 3 1 8 4 NW 1021,9 0,1 0 0,0
14.07.2018 03:00:00 12,7 12,1 6,5 17,4 15,3 5 3 9 5 NNW 1022,2 0,2 0 0,2
14.07.2018 02:00:00 13,2 12,7 6,5 17,6 15,3 6 3 9 5 N 1022,3 0,1 0 0,0
14.07.2018 01:00:00 12,6 12,0 6,9 17,7 15,3 5 3 6 4 N 1022,6 0,4 0 0,0
14.07.2018 00:00:00 14,2 13,6 12,5 17,8 15,3 4 2 10 5 NNW 1022,6 0,3 0 0,0
13.07.2018 23:00:00 14,4 13,6 11,3 17,8 15,3 5 3 9 5 NW 1022,4 2,4 0 0,0
13.07.2018 22:00:00 15,3 13,0 13,7 17,8 15,3 6 4 9 5 N 1021,7 13 25 0,0
13.07.2018 21:00:00 17,7 12,2 21,1 17,8 15,3 6 4 13 7 NE 1021,4 53 60 0,0
13.07.2018 20:00:00 19,1 12,1 28,5 17,7 15,3 9 5 17 9 NE 1021,1 60 60 0,0
13.07.2018 19:00:00 19,9 12,9 32,1 17,6 15,3 9 5 16 9 NE 1021,2 59 60 0,0
13.07.2018 18:00:00 20,4 12,9 35,3 17,4 15,3 10 5 20 11 NE 1021,4 60 60 0,0
13.07.2018 17:00:00 20,6 13,1 35,5 17,2 15,3 13 7 23 12 NE 1021,7 20 60 0,0
13.07.2018 16:00:00 20,3 13,7 35,7 17,0 15,3 12 6 27 15 NE 1021,9 20 60 0,0
13.07.2018 15:00:00 20,8 14,0 35,0 16,8 15,3 14 8 26 14 ENE 1022,1 10 60 0,0
13.07.2018 14:00:00 20,1 13,5 35,1 16,7 15,3 15 8 27 14 ENE 1022,4 14 60 0,0
13.07.2018 13:00:00 20,1 13,3 32,5 16,6 15,3 15 8 24 13 ENE 1022,3 20 60 0,0
13.07.2018 12:00:00 19,7 13,8 29,7 16,5 15,3 13 7 23 12 ENE 1022,3 25 53 0,0
13.07.2018 11:00:00 18,5 13,6 28,3 16,5 15,3 12 7 20 11 NE 1022,2 19 53 0,0
13.07.2018 10:00:00 18,0 14,1 17,4 16,6 15,3 9 5 19 10 ENE 1022,3 12 35 0,0
13.07.2018 09:00:00 15,6 14,1 15,0 16,6 15,3 12 7 21 12 E 1022,2 11 9 0,0
13.07.2018 08:00:00 14,6 14,0 14,2 16,7 15,3 12 7 19 10 E 1022,1 7 0 0,0
13.07.2018 07:00:00 14,2 13,6 8,5 16,8 15,3 9 5 19 10 E 1022,2 4,3 0 0,0
13.07.2018 06:00:00 12,8 12,2 8,1 16,9 15,3 8 4 12 7 ENE 1022,4 5 0 0,0
13.07.2018 05:00:00 13,0 12,4 8,6 17,1 15,3 7 4 11 6 ENE 1022,4 5 0 0,2
13.07.2018 04:00:00 13,2 12,6 6,2 17,2 15,3 8 4 11 6 NE 1022,2 4,9 0 0,0
13.07.2018 03:00:00 12,4 11,8 5,9 17,3 15,3 6 3 9 5 N 1022,4 3,8 0 0,0
13.07.2018 02:00:00 12,5 11,9 6,0 17,4 15,3 5 3 9 5 N 1022,4 3,3 0 0,0
13.07.2018 01:00:00 13,1 12,5 6,4 17,6 15,3 8 4 12 6 NE 1022,4 4,8 0 0,0
13.07.2018 00:00:00 13,1 12,3 7,8 17,7 15,3 6 3 9 5 NNE 1022,4 3,0 0 0,0
12.07.2018 23:00:00 13,6 12,5 8,0 17,7 15,3 5 3 10 5 NE 1022,2 7 0 0,0
12.07.2018 22:00:00 15,1 12,6 13,5 17,7 15,3 7 4 10 6 NNE 1021,9 17 30 0,0
12.07.2018 21:00:00 17,7 12,6 21,0 17,7 15,3 8 5 17 9 E 1021,6 20 60 0,0
12.07.2018 20:00:00 19,0 12,7 25,0 17,6 15,3 11 6 23 12 E 1021,4 20 60 0,0
12.07.2018 19:00:00 19,7 11,5 28,8 17,5 15,3 16 9 22 12 ENE 1021,2 20 60 0,0
12.07.2018 18:00:00 20,2 12,7 33,9 17,3 15,3 14 7 24 13 ENE 1021,3 43 60 0,0
12.07.2018 17:00:00 20,4 13,4 35,3 17,1 15,3 13 7 24 13 ENE 1021,5 20 60 0,0
12.07.2018 16:00:00 20,2 13,2 36,2 16,9 15,3 15 8 26 14 ENE 1021,7 20 60 0,0
12.07.2018 15:00:00 20,6 13,3 36,9 16,7 15,2 16 9 26 14 NE 1021,8 20 60 0,0
12.07.2018 14:00:00 20,5 12,5 34,2 16,5 15,2 15 8 24 13 ENE 1021,8 20 57 0,0
12.07.2018 13:00:00 20,7 12,4 30,9 16,5 15,2 14 7 24 13 ENE 1021,7 20 57 0,0
12.07.2018 12:00:00 20,5 12,5 28,7 16,4 15,2 14 7 24 13 E 1021,6 20 60 0,0
12.07.2018 11:00:00 19,7 12,7 26,4 16,5 15,2 13 7 22 12 ESE 1021,4 19 60 0,0
12.07.2018 10:00:00 18,7 12,2 21,9 16,5 15,3 13 7 21 11 E 1021,5 17 60 0,0
12.07.2018 09:00:00 17,4 11,4 15,2 16,6 15,2 13 7 18 10 E 1021,3 11 60 0,0
12.07.2018 08:00:00 15,3 12,8 10,0 16,6 15,2 8 5 12 6 E 1021,2 9 52 0,2
12.07.2018 07:00:00 13,2 12,1 9,3 16,7 15,3 5 3 9 5 E 1021,1 10 0 0,0
12.07.2018 06:00:00 13,0 11,9 9,9 16,8 15,2 8 4 10 6 E 1021,0 10 0 0,0
12.07.2018 05:00:00 12,9 11,8 7,5 16,9 15,2 8 4 9 5 ENE 1020,9 17 0 0,0
12.07.2018 04:00:00 12,4 11,8 5,8 17,0 15,2 5 3 7 4 E 1021,1 23 0 0,0
12.07.2018 03:00:00 10,9 10,0 5,5 17,1 15,2 6 3 7 4 N 1021,3 13 0 0,0
12.07.2018 02:00:00 11,4 10,6 6,8 17,2 15,2 4 2 7 4 N 1021,5 7 0 0,0
12.07.2018 01:00:00 13,1 12,5 8,7 17,3 15,2 6 3 10 5 N 1021,5 0,6 0 0,0
12.07.2018 00:00:00 13,0 12,2 9,1 17,4 15,2 8 4 10 5 N 1021,5 4,8 0 0,0
11.07.2018 23:00:00 13,6 12,3 10,2 17,4 15,2 8 4 11 6 NE 1021,5 12 0 0,0
11.07.2018 22:00:00 15,1 11,7 14,4 17,4 15,2 9 5 13 7 NE 1021,0 38 31 0,0
11.07.2018 21:00:00 18,0 11,1 21,4 17,3 15,2 9 5 16 9 E 1020,8 49 60 0,0
11.07.2018 20:00:00 19,3 11,6 25,5 17,2 15,2 10 6 19 11 E 1020,6 52 60 0,0
11.07.2018 19:00:00 19,9 11,9 34,0 17,1 15,2 9 5 21 11 ENE 1020,7 48 60 0,0
11.07.2018 18:00:00 19,8 12,1 32,4 17,0 15,2 8 4 20 11 E 1021,0 51 60 0,0
11.07.2018 17:00:00 19,2 12,5 36,7 16,9 15,2 11 6 22 12 NE 1021,3 19 60 0,0
11.07.2018 16:00:00 19,6 13,1 40,5 16,7 15,2 12 6 23 12 NE 1021,5 18 60 0,0
11.07.2018 15:00:00 19,6 13,1 38,1 16,5 15,2 13 7 23 12 NE 1021,6 19 60 0,0
11.07.2018 14:00:00 18,8 12,5 33,8 16,5 15,2 13 7 23 12 NE 1022,0 19 51 0,0
11.07.2018 13:00:00 19,5 13,2 33,9 16,4 15,2 12 7 24 13 NE 1022,0 19 51 0,0
11.07.2018 12:00:00 18,8 13,2 29,1 16,4 15,2 14 8 22 12 NNE 1022,1 20 39 0,0
11.07.2018 11:00:00 18,7 13,5 29,1 16,4 15,2 10 6 20 11 ENE 1022,0 15 52 0,0
11.07.2018 10:00:00 17,6 13,1 22,5 16,4 15,2 11 6 18 10 ENE 1022,1 18 41 0,0
11.07.2018 09:00:00 17,1 13,2 14,6 16,5 15,2 9 5 17 9 NNE 1022,0 20 60 0,0
11.07.2018 08:00:00 15,5 12,4 7,8 16,6 15,2 10 5 15 8 N 1021,8 20 60 0,0
11.07.2018 07:00:00 11,2 9,6 4,8 16,7 15,2 5 3 8 5 NNW 1022,2 18 11 0,0
11.07.2018 06:00:00 11,0 9,4 4,6 16,9 15,2 5 3 9 5 NNW 1022,3 19 0 0,2
11.07.2018 05:00:00 11,7 10,9 5,5 17,0 15,2 6 3 8 4 N 1022,5 14 0 0,0
11.07.2018 04:00:00 11,7 10,8 4,1 17,1 15,2 6 3 9 5 N 1022,5 14 0 0,0
11.07.2018 03:00:00 11,8 10,5 4,5 17,2 15,2 7 4 10 6 NNE 1022,5 34 0 0,0
11.07.2018 02:00:00 12,3 10,9 3,9 17,3 15,2 8 4 9 5 NE 1022,6 35 0 0,0
11.07.2018 01:00:00 11,0 9,9 4,7 17,4 15,2 4 2 6 3 NE 1022,8 39 0 0,0
11.07.2018 00:00:00 11,0 8,0 5,5 17,5 15,2 0 0 5 3 N 1022,9 46 0 0,0
10.07.2018 23:00:00 13,1 8,2 8,0 17,6 15,2 5 3 11 6 E 1022,8 49 0 0,0
10.07.2018 22:00:00 15,1 8,1 13,4 17,6 15,1 9 5 16 9 E 1022,5 60 31 0,0
10.07.2018 21:00:00 16,8 8,2 18,3 17,5 15,1 11 6 22 12 E 1022,4 56 52 0,0
10.07.2018 20:00:00 17,4 8,5 20,1 17,5 15,2 15 8 25 14 E 1022,3 20 53 0,0
10.07.2018 19:00:00 18,4 8,6 25,6 17,5 15,2 18 10 32 17 E 1022,4 19 60 0,0
10.07.2018 18:00:00 19,3 9,2 30,8 17,3 15,1 18 10 28 15 E 1022,4 19 60 0,0

tt = temperature
td = dewpoint
tt 5cm = temperature 5cm
tt -20cm = temperature -20cm
tt -100cm = temperature -100cm
ff = wind speed
fx = gusts
dd = wind direction
ppp = reduced air pressure
vv = visibility
sd = sunshine duration
rr = precipitation

Next stations